STARLINK-32327, 61641

Orbit data source: Space-Track

STARLINK-32327, 61641 is a payload satellite owned by SpaceX/Seattle (US) in LEO that was launched on Wed, 23 Oct 2024 UTC via an FALCON 9 launch vehicle from the Air Force Eastern Test Range (AFETR). Payload-class satellites include a variety of spacecraft equipped with specific instruments for various scientific and technological missions. These include communications satellites like Starlink; space stations such as the ISS; scientific satellites like the Hubble; Earth observation satellites from companies like Planet Labs, Umbra, and HawkEye 360; GPS; miniature CubeSats for education and research; and military/defense satellites.

Loading next visibility...
Identifier
61641, 2024-191W
Orbit
LEO
Country
Flag of USUS
Related business
Manufacturer
SpaceX/Seattle
Mission
Operational Commercial Communications
Bus & Motor
STARLINK V2M, Unknown motor
Mass
730 kg wet, ~700 kg dry
Launch date (UTC)
2024-10-23 (1 year ago)
Launch vehicle
FALCON 9
Launch site
Air Force Eastern Test Range (AFETR)
Object type
Payload
Rocket body
Debris
Shape & HBR
Box + 2 Pan, 17.7 m
Radar Cross Section
33.884 m², Large (>1 m²)

Expand to show TLE details & history
Last TLE update: 9 hours ago

TLE from 9 hours ago
0 STARLINK-32327
1 61641U 24191W   26095.46675694  .00003418  00000-0  13382-3 0  9990
2 61641  43.0067   3.1027 0001363 260.9255  99.1442 15.27543988 81634
Epoch: 2026-04-05T11:12Z
TLE epoch observation values (Epoch: 2026-04-05T11:12:07.799Z)
Latitude
-0.00006°
Longitude
1.29837°
Altitude
483.082 km
Speed
7.626 km/s
True Right ascension
00h 12m 24s
True Declination
0° 00' 00"
Sunlit
Object was in daylight at epoch
Visualization orbit readout
Latitude
Unknown
Longitude
Unknown
Altitude
Unknown
Speed
Unknown
Apparent Right ascension
Unknown
Apparent Declination
Unknown
Sunlit
N/A
Visualization observer readout
Local Sidereal Time
01:52:53
Azimuth
Unknown
Elevation
Unknown
Doppler factor
Unknown
Orbital elements
Apogee altitude
486.036 km
Perigee altitude
484.165 km
Semi-major axis
6,863.238 km
Eccentricity
0.00014
Inclination
43.0067°
RAAN
3.1027°
Arg. of periapsis
260.9255°
True anomaly
99.15962°
Mean anomaly
99.1442°
Eccentric anomaly
99.15191°
Mean motion
3.81724 °/min
Orbital period
94.31 mins
BSTAR
0.00013382
Loading maneuver chart data...
Computing Atmospheric mass density...
Loading historical data...
Loading historical data...
Loading historical data...
Loading historical data...
Loading historical data...
Loading historical data...
Loading historical data...

Documentation

Showing up to 5 results
|